Volver al catálogo

COSMOS 2277

GLONASS

ActivoNavegaciónMEO
NORAD 23044·PAYLOAD·🇷🇺 Russia

Lanzado Apr 11, 1994 desde Baikonur Cosmodrome

Loading…

Próximos Pases (próximas 24 horas)

TLE

ActualizadoSource: Space-Track

Época: Sep 13, 2026, 09:42 UTC

1 23044U 94021B   26256.40426505 -.00000031  00000-0  00000-0 0  9991
2 23044  63.9199 297.5141 0059410 209.6493 218.5550  2.13104691252296

Sigue COSMOS 2277 en tiempo real con AllMySat

Download on the App Store